This is the latest recevied weather packets stored in our database for station/object KB1JLI. If no packets are shown the sender has not sent any weather packets the latest 10 day(s).
| Time | Temp. | Humidity | Pressure | Rain* | Wind** | Luminosity | Snow |
|---|---|---|---|---|---|---|---|
| 1777918035 | 22.22° C | 29% | 1006.9 hPa | 0 mm | - | 635 W/m² | - |
| 1777917733 | 21.67° C | 29% | 1007 hPa | 0 mm | - | 645 W/m² | - |
| 1777917431 | 22.78° C | 30% | 1007.1 hPa | 0 mm | - | 648 W/m² | - |
| 1777917127 | 21.67° C | 31% | 1007.1 hPa | 0 mm | - | 653 W/m² | - |
| 1777916825 | 21.11° C | 30% | 1007 hPa | 0 mm | - | 657 W/m² | - |
| 1777916523 | 20.56° C | 31% | 1007.1 hPa | 0 mm | - | 658 W/m² | - |
| 1777916219 | 21.11° C | 31% | 1007.4 hPa | 0 mm | - | 666 W/m² | - |
| 1777915916 | 21.11° C | 30% | 1007.3 hPa | 0 mm | - | 670 W/m² | - |
| 1777915613 | 20.56° C | 32% | 1007.2 hPa | 0 mm | - | 679 W/m² | - |
| 1777915309 | 20.56° C | 32% | 1007.2 hPa | 0 mm | - | 676 W/m² | - |
| 1777915005 | 21.67° C | 31% | 1007.5 hPa | 0 mm | - | 683 W/m² | - |
| 1777914703 | 21.11° C | 32% | 1007.5 hPa | 0 mm | - | 683 W/m² | - |
| 1777914399 | 21.67° C | 31% | 1007.4 hPa | 0 mm | - | 687 W/m² | - |
| 1777914097 | 21.11° C | 32% | 1007.4 hPa | 0 mm | - | 685 W/m² | - |
| 1777913793 | 20.56° C | 31% | 1007.3 hPa | 0 mm | - | 692 W/m² | - |
| 1777913489 | 20.56° C | 31% | 1007.1 hPa | 0 mm | - | 688 W/m² | - |
| 1777913186 | 20.56° C | 33% | 1007.5 hPa | 0 mm | - | 697 W/m² | - |
| 1777912882 | 20.56° C | 31% | 1007.8 hPa | 0 mm | - | 696 W/m² | - |
| 1777912578 | 20.56° C | 31% | 1007.5 hPa | 0 mm | - | 693 W/m² | - |
| 1777912270 | 20.56° C | 32% | 1007.5 hPa | 0 mm | - | 691 W/m² | - |
| 1777911965 | 20.56° C | 31% | 1007.4 hPa | 0 mm | - | 696 W/m² | - |
| 1777911662 | 21.11° C | 31% | 1007.5 hPa | 0 mm | - | 695 W/m² | - |
| 1777911357 | 21.11° C | 31% | 1007.5 hPa | 0 mm | - | 688 W/m² | - |
| 1777911056 | 20.56° C | 31% | 1007.5 hPa | 0 mm | - | 690 W/m² | - |
| 1777910753 | 20° C | 32% | 1007.5 hPa | 0 mm | - | 687 W/m² | - |
* Rain latest hour (hover to see other rain measurements)
** Current wind speed in m/s (hover to see current wind gust speed)